Miscellaneous Local Product
Issued by NWS Hastings, NE

Home | Current Version | Previous Version | Graphics & Text | Print | Product List | Glossary On
Versions: 1 2 3 4 5 6 7 8 9 10 11 12 13 14 15 16 17 18 19 20 21 22 23 24 25 26 27 28 29 30 31 32 33 34 35 36 37 38 39 40 41 42 43 44 45 46 47 48 49 50
747
AXUS43 KGID 282202
MISGRI

GID CWA HOURLY WEATHER ROUNDUP
NATIONAL WEATHER SERVICE HASTINGS NE
500 PM CDT WED JUN 28 2017

NOTE: "FAIR" INDICATES FEW OR NO CLOUDS BELOW 12,000 FEET WITH NO
SIGNIFICANT WEATHER AND/OR OBSTRUCTIONS TO VISIBILITY.

...SOUTH CENTRAL NEBRASKA...

CITY           SKY/WX    TMP DP  RH WIND       PRES   REMARKS
GRAND ISLAND   SUNNY     88  60  38 W7        29.72S
HASTINGS       SUNNY     88  56  33 VRB5      29.73F
KEARNEY        SUNNY     88  55  33 CALM      29.74F
ORD            MOSUNNY   89  51  27 NW10G17   29.69F
YORK           SUNNY     86  63  45 W9        29.70F
AURORA         SUNNY     86  62  44 NW6       29.71F
LEXINGTON      SUNNY     88  54  30 NW5       29.74F
HOLDREGE       SUNNY     86  53  31 NW5       29.74F
HEBRON         MOSUNNY   95  65  36 W9        29.67F HX  97

...NEBRASKA PANHANDLE...

CITY           SKY/WX    TMP DP  RH WIND       PRES   REMARKS
CHADRON        PTSUNNY   81  46  29 W7        29.76R
ALLIANCE       SUNNY     84  48  28 E9        29.77F
SCOTTSBLUFF    MOSUNNY   84  48  28 SE12      29.76F
SIDNEY         MOSUNNY   83  45  26 SE15G22   29.81S

...WESTERN AND NORTH CENTRAL NEBRASKA...

CITY           SKY/WX    TMP DP  RH WIND       PRES   REMARKS
VALENTINE      SUNNY     89  39  17 W14G20    29.73F
AINSWORTH      MOSUNNY   86  52  31 NW9G16    29.74F
ONEILL         MOSUNNY   88  55  32 W8G16     29.70F
BROKEN BOW     SUNNY     89  54  30 NW7       29.73F
IMPERIAL       MOSUNNY   91  39  16 N6        29.77F
NORTH PLATTE   SUNNY     91  49  23 NW8       29.74F
MCCOOK         MOSUNNY   91  48  22 E7        29.73F

...EASTERN NEBRASKA...

CITY           SKY/WX    TMP DP  RH WIND       PRES   REMARKS
NORFOLK        MOSUNNY   87  58  37 W14       29.65S
SO SIOUX CITY  SUNNY     89  65  44 W10       29.62F HX  91
TEKAMAH        SUNNY     91  61  36 W14       29.62F HX  91
COLUMBUS       SUNNY     88  63  43 W9        29.68F
ALBION         MOSUNNY   89  54  30 W8        29.69F
OMAHA EPPLEY   PTSUNNY   92  67  43 W15G25    29.60F HX  95
OFFUTT AFB     SUNNY     90  70  52 W18       29.61F HX  95
MILLARD        MOSUNNY   91  72  54 W14G23    29.62F HX  98
LINCOLN        SUNNY     91  69  48 W17       29.66F HX  96
NEBRASKA CITY  CLOUDY    80  75  84 W8        29.65S THUNDER
BEATRICE       PTSUNNY   90  71  52 SW15      29.66F HX  96
FALLS CITY     LGT RAIN  88  71  57 S25G33    29.64F HX  94

...NORTHERN KANSAS...

CITY           SKY/WX    TMP DP  RH WIND       PRES   REMARKS
GOODLAND       SUNNY     89  48  24 S8        29.79F
HILL CITY      SUNNY     93  62  35 E6        29.71F HX  93
NORTON         CLEAR     93  37  14 E5        29.72
PHILLIPSBURG   SUNNY     97  48  19 SW3       29.70F HX  93
SMITH CENTER   CLOUDY    93  57  29 CALM      29.69F HX  92
HAYS           SUNNY     94  66  39 S10       29.70F HX  97
RUSSELL        PTSUNNY   95  65  37 SW12      29.69F HX  97
CONCORDIA      MOSUNNY   95  66  38 SW20G26   29.69F HX  98
SALINA         MOSUNNY  100  62  28 SW24G31   29.69F HX 101
TOPEKA         MOSUNNY   90  71  53 S16G28    29.73F HX  96



USA.gov is the U.S. government's official web portal to all federal, state and local government web resources and services.